User: anonymous
Location: Unspecified
(0.0000°N, 0.0000°E)
Time: 22:32:06
(UTC+00:00)
Language:

PLEIADES 1B - Orbit

View from above orbital plane
View from above orbital plane
View from above satellite
View from above satellite

Ground track
Ground track

The orbit data is extracted from the following two-line orbital elements,

1 39019U 12068A   14209.42239403 -.00002177  00000-0 -45867-3 0  9220
2 39019 098.1970 283.7915 0001245 125.0242 235.1030 14.58543155 87966
Epoch (UTC): 28 July 2014 10:08:14
Eccentricity: 0.0001245
inclination: 98.1970°
perigee height: 697 km
apogee height: 699 km
right ascension of ascending node: 283.7915°
argument of perigee: 125.0242°
revolutions per day: 14.58543155
mean anomaly at epoch: 235.1030°
orbit number at epoch: 8796

The dashed part of the orbit path shows where the satellite is in the earth's shadow,  

DLR